Location: Althorst
(53.6379°N, 10.7715°E)
Time: 02:08:05
(UTC+00:00)

Cosmos 1666 - Pass Details

Date: 10 December 2019
Orbit: 498 x 521 km, 82.5° (Epoch: 28 January)

Event Time Altitude Azimuth Distance (km) Brightness Sun altitude
Rises 16:54:59 0° 348° (NNW) 2,616 6.2 -16.2°
Reaches altitude 10° 16:57:08 10° 349° (N) 1,724 5.3 -16.5°
Maximum altitude 17:00:54 89° 93° (E) 509 2.5 -17.0°
Drops below altitude 10° 17:04:38 10° 170° (S) 1,702 5.4 -17.6°
Sets 17:06:44 0° 170° (S) 2,580 6.3 -17.9°
